Aérodrome :
LOGIN :

S'inscrire | Disclaimer

   EN    FR    IT 

 










Légende :    VFR   VFR Marginal   IFR   IFR Intensif   IFR Très Intensif
Visi : 
Plafond : 
>= 8 km
>= 3000ft
5 à 8 km
1000 à 3000 ft
1500m à 5 km
500 à 1000 ft
800 à 1500m
200 à 500 ft
< 800m
< 200 ft
Symboles :   Orages  Brouillard  Fortes neiges  Fortes précipitations  Vent > 20 kt
SIGMETs :   Divers  Orages  Givrage  Turbulence  Onde Orograph.  Cendres Volcan.







- Altitude de l'aérodrome : 101 ft
- Code IATA : GLO
- Voir les cartes d'approche


EGBJ - Gloucestershire

DERNIER METAR :
  • 221150Z 02007KT 9999 FEW045 20/11 Q1018

METARs EXPIRÉS :
  • 221120Z 03008KT 350V060 9999 FEW044 20/11 Q1018
  • 221050Z 01007KT 330V050 9999 FEW044 19/11 Q1018
  • 221020Z 01007KT 340V050 9000 FEW040 18/11 Q1018
  • 220950Z 01008KT 9000 FEW030 18/10 Q1018
  • 220920Z 34006KT 9000 FEW024 17/11 Q1018

TAF TAF EGBJ
Valide du 22 à 12h jusqu'au 22 à 19h UTC


221059Z 2212/2219 03009KT 9999 FEW045
PROB30
TEMPO 2212/2219 9000
Pas de NOTAMs connus pour ce terrain.



MET'MAP, la Météo Aéronautique d'un coup d'oeil ! - Copyright ORBIFLY Décembre 2007 - Disclaimer

ORBIFLY MET'MAP TEAM :

Programmation & Développement : Alexandra Zaïnal
Conception & Développement : Baudouin d'Aumeries
Co-Programmation & Développement : Marc-Olivier Méhu
Soutien technique & logistique : Manuel Goepfert

Contact : metmap@orbifly.com




SOURCES & CREDITS :

   NOAA